Volver al catálogo

STARLINK-31286

ActivoComunicacionesVLEO
NORAD 59082·PAYLOAD·🇺🇸 United States

Lanzado Feb 29, 2024 desde Cape Canaveral Space Force Station

Loading…

Próximos Pases (próximas 24 horas)

TLE

ActualizadoSource: CelesTrak SupGP

Época: Sep 14, 2026, 20:40 UTC

1 59082C 24041J   26257.86159722 -.00023302  00000+0 -84403-3 0  2577
2 59082  43.0025 322.1552 0001878 271.7533 149.5957 15.27588078    14

Sigue STARLINK-31286 en tiempo real con AllMySat

Download on the App Store